Time,TemperatureF,DewpointF,PressureIn,WindDirection,WindDirectionDegrees,WindSpeedMPH,WindSpeedGustMPH,Humidity,HourlyPrecipIn,Conditions,Clouds,dailyrainin,SolarRadiationWatts/m^2,SoftwareType,DateUTC
2017-10-24 00:01:00,53.3,51.3,29.53,SW,225,4.0,8.0,93,0.02,,---,0.36,0.00,VWS V15.00,2017-10-24 04:01:00,
2017-10-24 00:06:00,53.1,51.1,29.53,SW,227,2.0,5.0,93,0.02,,---,0.00,0.00,VWS V15.00,2017-10-24 04:06:00,
2017-10-24 00:11:00,53.0,51.0,29.53,WSW,240,4.0,11.0,93,0.02,,---,0.00,0.00,VWS V15.00,2017-10-24 04:11:00,
2017-10-24 00:16:00,52.9,50.9,29.53,WNW,300,6.0,11.0,93,0.01,,---,0.00,0.00,VWS V15.00,2017-10-24 04:16:00,
2017-10-24 00:21:00,52.6,50.3,29.53,WSW,248,2.0,12.0,92,0.01,,---,0.00,0.00,VWS V15.00,2017-10-24 04:21:00,
2017-10-24 00:26:00,52.3,49.5,29.53,WSW,240,9.0,15.0,90,0.01,,---,0.00,0.00,VWS V15.00,2017-10-24 04:26:00,
2017-10-24 00:31:00,52.2,48.8,29.54,WSW,237,6.0,12.0,88,0.01,,---,0.01,0.00,VWS V15.00,2017-10-24 04:31:00,
2017-10-24 00:36:00,52.1,48.4,29.54,WSW,244,5.0,12.0,87,0.01,,---,0.01,0.00,VWS V15.00,2017-10-24 04:36:00,
2017-10-24 00:41:00,52.1,47.7,29.54,WSW,250,4.0,14.0,85,0.01,,---,0.01,0.00,VWS V15.00,2017-10-24 04:41:00,
2017-10-24 00:46:00,52.1,47.7,29.55,WSW,249,3.0,8.0,85,0.01,,---,0.01,0.00,VWS V15.00,2017-10-24 04:46:00,
2017-10-24 00:51:00,52.0,47.6,29.55,WSW,252,2.0,9.0,85,0.01,,---,0.01,0.00,VWS V15.00,2017-10-24 04:51:00,
2017-10-24 00:56:00,52.0,47.6,29.56,West,275,4.0,9.0,85,0.01,,---,0.01,0.00,VWS V15.00,2017-10-24 04:56:00,
2017-10-24 01:01:00,52.0,48.0,29.55,SW,228,3.0,11.0,86,0.01,,---,0.01,0.00,VWS V15.00,2017-10-24 05:01:00,
2017-10-24 01:06:00,52.0,48.0,29.56,SW,226,3.0,8.0,86,0.01,,---,0.01,0.00,VWS V15.00,2017-10-24 05:06:00,
2017-10-24 01:11:00,52.1,48.0,29.56,West,264,2.0,7.0,86,0.01,,---,0.01,0.00,VWS V15.00,2017-10-24 05:11:00,
2017-10-24 01:16:00,52.1,48.0,29.56,WSW,244,5.0,6.0,86,0.01,,---,0.01,0.00,VWS V15.00,2017-10-24 05:16:00,
2017-10-24 01:21:00,52.1,48.0,29.56,WSW,251,8.0,13.0,86,0.01,,---,0.01,0.00,VWS V15.00,2017-10-24 05:21:00,
2017-10-24 01:26:00,52.1,47.7,29.56,WSW,240,5.0,19.0,85,0.01,,---,0.01,0.00,VWS V15.00,2017-10-24 05:26:00,
2017-10-24 01:31:00,52.2,47.8,29.56,South,183,12.0,12.0,85,0.00,,---,0.01,0.00,VWS V15.00,2017-10-24 05:31:00,
2017-10-24 01:36:00,52.1,47.7,29.57,West,273,7.0,14.0,85,0.00,,---,0.01,0.00,VWS V15.00,2017-10-24 05:36:00,
2017-10-24 01:41:00,51.8,47.8,29.57,West,267,2.0,11.0,86,0.00,,---,0.01,0.00,VWS V15.00,2017-10-24 05:41:00,
2017-10-24 01:46:00,51.6,48.2,29.57,SW,234,5.0,14.0,88,0.00,,---,0.01,0.00,VWS V15.00,2017-10-24 05:46:00,
2017-10-24 01:51:00,51.3,47.9,29.57,South,190,6.0,12.0,88,0.00,,---,0.01,0.00,VWS V15.00,2017-10-24 05:51:00,
2017-10-24 01:56:00,51.0,47.9,29.57,SW,229,5.0,15.0,89,0.00,,---,0.01,0.00,VWS V15.00,2017-10-24 05:56:00,
2017-10-24 02:01:00,50.6,47.5,29.58,West,279,8.0,22.0,89,0.00,,---,0.01,0.00,VWS V15.00,2017-10-24 06:01:00,
2017-10-24 02:06:00,50.4,47.3,29.58,WSW,247,8.0,17.0,89,0.00,,---,0.01,0.00,VWS V15.00,2017-10-24 06:06:00,
2017-10-24 02:11:00,50.1,47.0,29.58,SW,232,7.0,16.0,89,0.00,,---,0.01,0.00,VWS V15.00,2017-10-24 06:11:00,
2017-10-24 02:16:00,49.9,46.8,29.58,West,266,8.0,17.0,89,0.00,,---,0.01,0.00,VWS V15.00,2017-10-24 06:16:00,
2017-10-24 02:21:00,49.7,46.6,29.58,SW,220,6.0,19.0,89,0.00,,---,0.01,0.00,VWS V15.00,2017-10-24 06:21:00,
2017-10-24 02:26:00,49.6,46.5,29.58,West,281,4.0,13.0,89,0.00,,---,0.01,0.00,VWS V15.00,2017-10-24 06:26:00,
2017-10-24 02:31:00,49.5,46.1,29.58,SW,220,6.0,16.0,88,0.00,,---,0.01,0.00,VWS V15.00,2017-10-24 06:31:00,
2017-10-24 02:36:00,49.6,45.9,29.57,WSW,240,6.0,10.0,87,0.00,,---,0.01,0.00,VWS V15.00,2017-10-24 06:36:00,
2017-10-24 02:41:00,49.7,45.7,29.58,WSW,250,3.0,11.0,86,0.00,,---,0.01,0.00,VWS V15.00,2017-10-24 06:41:00,
2017-10-24 02:46:00,49.8,45.5,29.58,West,269,5.0,11.0,85,0.00,,---,0.01,0.00,VWS V15.00,2017-10-24 06:46:00,
2017-10-24 02:51:00,49.7,45.1,29.58,WSW,251,3.0,10.0,84,0.00,,---,0.01,0.00,VWS V15.00,2017-10-24 06:51:00,
2017-10-24 02:56:00,49.6,45.0,29.58,SW,236,2.0,5.0,84,0.00,,---,0.01,0.00,VWS V15.00,2017-10-24 06:56:00,
2017-10-24 03:01:00,49.6,44.7,29.58,SW,223,8.0,10.0,83,0.00,,---,0.01,0.00,VWS V15.00,2017-10-24 07:01:00,
2017-10-24 03:06:00,49.6,45.0,29.57,WSW,250,4.0,6.0,84,0.00,,---,0.01,0.00,VWS V15.00,2017-10-24 07:06:00,
2017-10-24 03:11:00,49.5,44.9,29.57,SW,235,4.0,6.0,84,0.00,,---,0.01,0.00,VWS V15.00,2017-10-24 07:11:00,
2017-10-24 03:16:00,49.4,45.1,29.57,SSW,209,1.0,1.0,85,0.00,,---,0.01,0.00,VWS V15.00,2017-10-24 07:16:00,
2017-10-24 03:21:00,49.2,44.6,29.56,WNW,284,2.0,5.0,84,0.00,,---,0.01,0.00,VWS V15.00,2017-10-24 07:21:00,
2017-10-24 03:26:00,49.3,44.7,29.57,SSW,192,0.0,4.0,84,0.00,,---,0.01,0.00,VWS V15.00,2017-10-24 07:26:00,
2017-10-24 03:31:00,49.1,44.8,29.58,SSW,200,0.0,3.0,85,0.00,,---,0.01,0.00,VWS V15.00,2017-10-24 07:31:00,
2017-10-24 03:36:00,48.9,44.6,29.58,SSW,213,4.0,6.0,85,0.00,,---,0.01,0.00,VWS V15.00,2017-10-24 07:36:00,
2017-10-24 03:41:00,48.8,44.8,29.58,SSW,213,0.0,4.0,86,0.00,,---,0.01,0.00,VWS V15.00,2017-10-24 07:41:00,
2017-10-24 03:47:00,48.7,45.0,29.58,SSW,192,3.0,6.0,87,0.00,,---,0.01,0.00,VWS V15.00,2017-10-24 07:47:00,
2017-10-24 03:52:00,48.6,44.9,29.57,South,182,2.0,5.0,87,0.00,,---,0.01,0.00,VWS V15.00,2017-10-24 07:52:00,
2017-10-24 03:57:00,48.5,45.1,29.57,South,185,3.0,7.0,88,0.00,,---,0.01,0.00,VWS V15.00,2017-10-24 07:57:00,
2017-10-24 04:02:00,48.4,45.3,29.58,SSW,196,3.0,7.0,89,0.00,,---,0.01,0.00,VWS V15.00,2017-10-24 08:02:00,
2017-10-24 04:07:00,48.3,45.2,29.58,SSW,197,4.0,7.0,89,0.00,,---,0.01,0.00,VWS V15.00,2017-10-24 08:07:00,
2017-10-24 04:12:00,48.3,45.2,29.58,SSW,198,3.0,8.0,89,0.00,,---,0.01,0.00,VWS V15.00,2017-10-24 08:12:00,